Regional Weather Roundup
Issued by NWS

Home | Current Version | Previous Version | Graphics & Text | Print | Product List | Glossary On
Versions: 1 2 3 4 5 6 7 8 9 10 11 12 13 14 15 16 17 18 19 20 21 22 23 24 25 26 27 28 29 30 31 32 33 34 35 36 37 38 39 40 41 42 43 44 45 46 47 48 49 50
615
ASUS45 KABQ 250110
RWRNM
NEW MEXICO REGIONAL WEATHER ROUNDUP
NATIONAL WEATHER SERVICE ALBUQUERQUE NM
600 PM MST SAT FEB 24 2018

NOTE: "FAIR" MEANS FEW OR NO CLOUDS BELOW 12,000 FEET AGL WITH NO
       SIGNIFICANT WEATHER OR OBSTRUCTIONS TO VISION.

      THIS PRODUCT IS RELEASED AS TWO VERSIONS.  ONE VERSION NEAR
      THE TOP OF THE HOUR CONTAINING PRELIMINARY DATA FROM ALBUQUERQUE
      AND OTHER STATIONS.  A FINAL VERSION WITH ADDITIONAL DATA IS
      ISSUED ABOUT 10 MINUTES AFTER THE HOUR.

NMZ501-503-504-510>518-250200-
NORTHWEST PLATEAU/NORTHCENTRAL MOUNTAINS

CITY           SKY/WX    TMP DP  RH WIND       PRES   REMARKS
FARMINGTON     FAIR      33   6  32 NW5       29.96F WCI  29
LOS ALAMOS     FAIR      30   1  29 CALM      29.97R
SANTA FE       FAIR      32   5  32 W15       29.95S WCI  22
TAOS           FAIR      27   7  42 SW15G23   29.95R WCI  15
ANGEL FIRE     FAIR      21   2  44 W16G23    29.90R WCI   7

$$
NMZ402-403-502-505>509-250200-
WESTCENTRAL MOUNTAINS/SOUTHWEST MOUNTAINS

CITY           SKY/WX    TMP DP  RH WIND       PRES   REMARKS
GALLUP         FAIR      31  12  45 SW14G23   30.00F WCI  21
GRANTS         FAIR      32  10  38 W14G22    30.02R WCI  22
SILVER CITY    FAIR      43  10  26 W12       30.05S

$$
NMZ407-409-411-412-250200-
SOUTHERN DESERTS

CITY           SKY/WX    TMP DP  RH WIND       PRES   REMARKS
DEMING         FAIR      48   7  18 W17G24    30.05R
LAS CRUCES     FAIR      50   8  18 SW13      30.05R
HOLLOMAN AFB   FAIR      47   6  18 E3        30.06R
ALAMOGORDO     FAIR      48   5  17 N3        30.04S
T OR C         FAIR      50   6  16 S10       29.99F

$$
NMZ519>523-250200-
CENTRAL VALLEYS/CENTRAL HIGHLANDS

CITY           SKY/WX    TMP DP  RH WIND       PRES   REMARKS
ALBUQUERQUE    FAIR      42   8  24 W13       29.99S
DOUBLE EAGLE   CLEAR     37   9  30 SW10      29.99S WCI  30
MORIARTY ARPT  FAIR      37   4  26 SW10      29.99S WCI  29
CLINES CORNERS FAIR      30   3  31 W17       29.97R WCI  18
BELEN          FAIR      41   4  21 W8        30.01S
SOCORRO        FAIR      44   4  19 CALM      30.00S

$$
NMZ524>526-539-540-250200-
SOUTHCENTRAL MOUNTAINS

CITY           SKY/WX    TMP DP  RH WIND       PRES   REMARKS
RUIDOSO        FAIR      34  -2  21 W13       30.02R WCI  25

$$
NMZ527>531-250200-
NORTHEAST HIGHLANDS/NORTHEAST PLAINS

CITY           SKY/WX    TMP DP  RH WIND       PRES   REMARKS
LAS VEGAS      FAIR      31   0  26 SW10G23   29.90R WCI  22
RATON          FAIR      32 -10  16 SW9       29.82R WCI  24
CLAYTON        FAIR      39 -11  11 SW10      29.82R WCI  32

$$
NMZ532>537-250200-
EASTCENTRAL PLAINS

CITY           SKY/WX    TMP DP  RH WIND       PRES   REMARKS
SANTA ROSA     FAIR      42  -1  16 W18G28    29.93R
TUCUMCARI      FAIR      47   0  14 W15       29.87R
CANNON AFB     FAIR      44   0  15 W12       29.94R
CLOVIS AIRPORT FAIR      43   2  18 W15       29.94R

$$
NMZ028-029-538-250200-
SOUTHEAST PLAINS

CITY           SKY/WX    TMP DP  RH WIND       PRES   REMARKS
ROSWELL        FAIR      53   5  14 NW9       29.96R
ARTESIA        FAIR      54   7  15 E6        29.99R
CARLSBAD       FAIR      51   2  13 W10       29.98R
HOBBS          CLEAR     48   1  14 NW6       29.99R


$$




USA.gov is the U.S. government's official web portal to all federal, state and local government web resources and services.